Location: Spruce Knob
(38.6995°N, 79.5330°W)
Time: 15:58:09
(UTC-04:00)

BEESAT - Visible Passes

Search period start: 30 March 2023 00:00
Search period end: 09 April 2023 00:00
Orbit: 698 x 704 km, 98.5° (Epoch: 29 March)

Date Brightness Start Highest point End Pass type
(mag) Time Alt. Az. Time Alt. Az. Time Alt. Az.
30 Mar ? 22:56:42 10° N 22:58:06 19° N 22:58:06 19° N visible
31 Mar ? 22:01:25 10° NNE 22:02:17 15° NNE 22:02:17 15° NNE visible
31 Mar ? 23:40:09 10° NNW 23:41:10 14° NNW 23:41:10 14° NNW visible
01 Apr ? 22:43:42 10° N 22:45:21 21° N 22:45:21 21° N visible
02 Apr ? 21:48:44 10° NNE 21:49:32 14° NE 21:49:32 14° NE visible
02 Apr ? 23:26:47 10° NNW 23:28:24 17° NNW 23:28:24 17° NNW visible
03 Apr ? 22:30:45 10° NNE 22:32:35 23° NNE 22:32:35 23° NNE visible
04 Apr ? 21:36:10 10° NE 21:36:45 13° NE 21:36:45 13° NE visible
04 Apr ? 23:13:33 10° N 23:15:37 22° NNW 23:15:37 22° NNW visible
05 Apr ? 22:17:52 10° NNE 22:19:48 24° NNE 22:19:48 24° NNE visible
05 Apr ? 23:57:42 10° NW 23:58:39 12° NW 23:58:39 12° NW visible
06 Apr ? 21:23:47 10° NE 21:23:57 11° NE 21:23:57 11° NE visible
06 Apr ? 23:00:25 10° N 23:02:49 27° NNW 23:02:49 27° NNW visible
07 Apr ? 22:05:02 10° NNE 22:06:58 23° NE 22:06:58 23° NE visible
07 Apr ? 23:43:55 10° NNW 23:45:50 16° NW 23:45:50 16° NW visible
08 Apr ? 22:47:20 10° N 22:49:59 32° N 22:49:59 32° N visible
